WGS F8 (USA 272)

Last updated on Thu Feb 05 2026 00:02:51 GMT+0000 (Coordinated Universal Time)

1 41879U 16075A 26035.30195197 -.00000209 00000+0 00000+0 0 9999 2 41879 0.0154 72.6906 0001102 50.7259 269.5425 1.00270602 33482
UTC large
Height (km)
Speed (km/s)
/
Latitude / Longitude
Inclination (degrees)
Orbital Period (minutes)
Azimuth
Elevation
Range (km)
Doppler Factor

Next 0 passes for location: London (51.5072 / 0.1276)

Sorry there are no passes over London.